#timestamp,LO_Frequency,Hit,StdDev 
1557838815.1,286047000.3,N
1557838835.9,286047002.2,N
1557838855.7,286047000.8,N
1557838875.5,286047000.7,N
1557838895.4,286047000.6,N
1557838915.2,286046997.4,N
1557838935.1,286046992.2,N
1557838936.0,286046992.2,N
1557838955.8,286046996.4,N
1557838975.6,286047002.2,N
1557838995.5,286047002.6,N
1557839015.3,286047005.3,N
1557839035.1,286047005.8,N
1557839055.9,286047004.1,N
1557839075.7,286047003.1,N
1557839095.6,286047002.9,N
1557839115.4,286047003.9,N
1557839135.2,286047001.6,N
1557839155.1,286047002.3,N
1557839156.0,286047002.3,N
1557839175.8,286047000.1,N
1557839195.6,286047002.1,N
1557839215.5,286047002.1,N
1557839235.3,286047004.4,N
1557839255.2,286047013.9,Y
1557839275.9,286047013.5,P
1557839295.7,286047016.1,N
1557839315.6,286047025.9,P
1557839335.4,286047027.5,Y
1557839355.2,286047013.0,P
1557839375.1,286047011.3,P
1557839376.0,286047011.3,P
1557839395.8,286047011.4,Y
1557839415.7,286047001.4,P
1557839435.5,286047009.1,N
1557839455.3,286047007.1,N
1557839475.2,286047004.6,N
1557839495.0,286047007.2,N
1557839495.9,286047007.2,N
1557839515.8,286047006.1,N
1557839535.6,286047007.1,N
1557839555.4,286047005.8,N
1557839575.3,286047005.7,N
1557839595.1,286047004.8,N
1557839615.8,286047006.1,N
1557839635.7,286047014.7,Y
1557839655.5,286047008.2,P
1557839675.4,286047012.0,P
1557839695.2,286047012.0,P
1557839715.0,286047008.1,Y
1557839715.9,286047008.1,P
1557839735.8,286046999.4,N
1557839755.6,286046998.0,N
1557839775.5,286046995.9,N
1557839795.3,286046992.9,N
1557839815.1,286046992.7,N
1557839835.9,286046992.5,N
1557839855.7,286046992.9,N
1557839875.5,286046992.0,N
1557839895.4,286046999.0,N
1557839915.2,286046996.6,N
1557839935.1,286047000.5,N
1557839936.0,286047000.5,N
1557839955.8,286047000.1,N
1557839975.6,286047003.4,N
1557839995.5,286047006.2,N
1557840015.3,286047005.1,N
1557840035.1,286047003.2,N
1557840055.9,286047004.2,N
1557840075.7,286047003.4,N
1557840095.6,286047001.3,N
1557840117.0,286047000.9,N
1557840135.1,286046997.9,N
1557840136.0,286046997.9,N
1557840155.8,286046996.5,N
1557840175.6,286046994.3,N
1557840195.5,286046994.5,N
1557840215.3,286046990.8,N
1557840235.1,286046990.3,N
1557840255.9,286046990.3,N
1557840275.7,286046990.9,N
1557840295.6,286046990.7,N
1557840315.4,286046989.3,N
1557840335.2,286046989.2,N
1557840355.1,286046986.3,N
1557840356.0,286046986.3,N
1557840375.8,286046986.6,N
1557840395.7,286046984.8,N
1557840415.5,286046983.4,N
1557840435.3,286046979.8,Y
1557840455.2,286046983.7,P
1557840475.0,286046985.9,N
1557840475.9,286046985.9,N
1557840495.7,286046989.1,N
1557840515.6,286046984.4,Y
1557840535.4,286046996.3,P
1557840555.3,286046997.3,N
1557840575.1,286046998.0,N
1557840595.8,286046995.5,N
1557840615.7,286046997.4,N
1557840635.5,286046997.1,N
1557840655.4,286047002.0,N
1557840675.2,286047003.3,N
1557840695.0,286047007.6,N
1557840695.9,286047007.6,N
1557840715.8,286047009.2,N
1557840735.6,286047012.2,N
1557840755.4,286047015.2,N
1557840775.3,286047015.5,N
1557840795.1,286047014.1,N
1557840815.9,286047018.8,N
1557840835.7,286047022.5,N
1557840855.5,286047025.7,N
1557840875.4,286047031.3,Y
1557840895.2,286047027.1,P
1557840915.1,286047029.0,N
1557840916.0,286047029.0,N
1557840935.8,286047032.2,Y
1557840955.6,286047015.7,P
1557840975.5,286047020.1,P
1557840995.3,286047021.5,P
1557841015.2,286047019.1,Y
1557841035.9,286047001.4,P
1557841055.7,286047004.5,N
1557841075.6,286047009.1,N
1557841095.4,286047010.1,N
1557841115.2,286047009.0,N
1557841135.1,286047010.3,N
1557841136.0,286047010.3,N
1557841155.8,286047010.0,N
1557841175.7,286047010.5,N
1557841195.5,286047015.4,Y
1557841215.3,286047008.9,P
1557841235.2,286047011.9,P
1557841255.0,286047006.2,P
1557841255.9,286047006.2,Y
1557841275.8,286046997.3,P
1557841295.6,286046998.8,N
1557841315.4,286046998.8,N
1557841335.3,286046995.7,N
1557841355.1,286046998.0,N
1557841375.8,286046996.5,N
1557841395.7,286046997.6,N
1557841415.5,286047001.0,N
1557841435.4,286047001.3,N
1557841455.2,286046999.8,N
1557841475.0,286046999.7,N
1557841475.9,286046999.7,N
1557841495.8,286046998.5,N
1557841515.6,286047000.7,N
1557841535.5,286047000.0,N
1557841555.3,286046993.7,N
1557841575.1,286046996.4,N
1557841595.9,286046997.1,N
1557841615.7,286046997.9,N
1557841635.5,286046997.5,N
1557841655.4,286047000.7,N
1557841675.2,286046997.8,N
1557841695.1,286047001.1,N
1557841696.0,286047001.1,N
1557841715.8,286047004.9,N
1557841735.6,286047006.6,N
1557841755.5,286047004.9,N
1557841775.3,286047000.1,N
1557841795.2,286046998.5,N
1557841815.9,286046996.9,N
1557841835.7,286046998.0,N
1557841855.6,286046993.7,N
1557841875.4,286046992.3,N
1557841895.2,286046989.7,Y
1557841915.1,286046991.1,P
1557841916.0,286046991.1,N
1557841935.8,286046990.7,N
1557841955.7,286046986.2,Y
1557841975.5,286046993.2,P
1557841995.3,286046989.1,P
1557842015.2,286046988.6,P
1557842035.0,286046987.7,Y
1557842035.9,286046987.7,P
1557842055.8,286046996.7,N
1557842075.6,286047000.5,N
1557842095.4,286047003.8,N
1557842115.3,286047004.6,N
1557842135.1,286047004.3,N
1557842155.9,286047004.0,N
1557842175.7,286047000.4,N
1557842195.5,286046996.7,N
1557842215.4,286046994.6,N
1557842235.2,286046993.6,N
1557842255.0,286046992.0,N
1557842255.9,286046992.0,N
1557842275.8,286046989.0,N
1557842295.6,286046987.8,N
1557842315.5,286046985.8,N
1557842335.3,286046988.0,N
1557842355.1,286046986.5,N
1557842375.9,286046982.2,N
1557842395.7,286046980.8,N
